Theta_e
333 332 334 333 334 334 333 333 334 335 337 338 339 338 337 337 337 336 336 341 344 346 347 349 348 345 345 344 345 347 349 347 347 346 345 344 343 344 343 342 341 340 342
331 330 330 330 330 332 332 332 332 333 334 336 337 337 338 337 337 336 337 338 342 345 348 348 347 346 342 341 344 344 348 346 346 346 345 344 343 343 342 342 343 342 343
332 331 329 329 330 330 331 331 331 331 332 333 334 335 337 336 336 336 338 340 341 344 347 347 347 342 341 338 345 345 345 346 344 346 345 344 344 342 343 344 342 342 342
333 331 330 328 329 329 330 330 329 329 329 329 331 332 333 334 335 336 339 340 340 339 344 346 343 338 340 344 342 344 344 345 345 344 345 345 344 343 343 343 341 342 342
334 331 330 329 328 328 328 329 328 329 326 328 329 330 332 333 335 337 339 340 340 338 342 342 343 343 342 344 343 343 344 345 344 344 344 345 344 341 342 342 341 342 342
334 332 332 331 329 328 327 327 328 328 328 329 329 330 331 332 333 335 337 339 340 338 340 338 340 341 343 344 344 343 342 343 343 345 344 344 344 340 341 341 342 341 342
337 334 334 332 330 329 329 328 328 328 327 329 328 328 330 331 332 334 335 336 336 337 337 337 336 337 336 341 342 342 342 342 343 344 343 342 343 343 342 341 341 341 341
339 336 335 333 331 330 329 329 328 326 328 329 327 327 325 327 329 332 333 333 334 334 335 336 335 335 336 337 339 340 341 341 342 343 343 342 343 343 341 341 340 340 340
341 340 337 336 333 332 329 329 329 328 327 328 331 329 320 320 323 326 328 329 331 331 333 334 335 335 336 336 336 338 340 340 340 341 344 342 343 342 342 341 340 339 337
341 341 339 337 335 334 332 331 331 331 332 327 328 330 330 328 322 319 323 325 328 329 331 331 333 333 334 335 335 335 335 337 339 342 344 343 342 342 342 340 339 339 337
336 339 339 337 336 335 335 333 332 332 333 330 329 329 329 327 325 323 319 323 325 327 329 330 331 331 332 334 334 334 334 333 335 338 340 343 342 341 341 341 339 338 338
333 336 338 338 337 336 335 334 334 334 332 332 331 331 328 326 323 321 318 319 321 324 325 327 328 329 330 332 332 332 330 329 329 331 333 336 339 340 342 341 339 340 340
331 334 337 336 337 338 337 336 335 335 331 332 330 330 330 328 327 324 323 319 320 320 324 325 327 328 328 329 330 331 333 328 326 326 329 330 334 337 340 338 339 340 339
331 336 337 338 338 339 338 337 336 335 334 332 330 328 328 327 326 326 324 321 316 318 320 323 324 327 330 329 329 329 334 327 324 324 324 326 329 332 333 335 335 336 336
333 336 338 338 338 339 338 336 335 335 333 331 329 329 328 326 326 325 325 324 322 315 315 320 322 326 329 330 331 334 335 328 326 322 322 323 324 327 328 329 329 329 330
336 336 337 338 338 338 337 335 335 333 332 331 329 327 326 326 325 325 325 324 322 320 317 319 322 326 329 329 331 331 332 326 322 320 322 319 320 322 324 325 326 326 327
336 336 337 337 337 336 335 335 334 332 331 328 327 327 326 326 325 325 326 325 322 321 319 320 323 328 327 328 326 326 328 327 325 321 320 319 318 319 322 322 322 323 324
336 337 337 337 337 336 334 334 331 330 329 327 326 326 325 325 325 326 326 325 324 321 321 319 322 326 323 325 326 324 325 325 326 321 319 318 316 316 317 317 318 319 318
336 337 337 336 335 335 333 332 331 330 329 328 327 326 326 326 325 326 326 324 323 321 322 322 321 325 324 325 323 322 323 323 324 322 318 317 316 317 316 315 316 315 313
336 336 337 337 335 334 333 331 330 329 328 327 326 326 326 326 326 325 325 324 322 321 321 323 322 322 322 322 324 320 319 322 320 321 320 318 318 318 317 316 316 317 311
336 337 335 335 335 334 331 329 329 327 326 325 325 324 325 325 321 322 326 324 321 320 322 320 319 319 319 319 320 321 319 320 319 322 321 322 321 322 320 316 320 317 310
334 335 335 333 331 327 307 310 322 326 325 324 323 323 324 318 315 312 314 315 320 321 321 319 319 318 319 320 321 320 319 319 316 322 320 317 324 321 322 325 313 309 308
332 330 328 326 323 318 302 304 309 326 324 323 322 322 323 323 320 323 313 312 312 311 317 325 320 320 319 322 321 319 322 319 317 319 321 314 319 319 321 317 308 307 306
327 324 322 321 319 312 301 301 308 323 323 322 322 323 323 322 322 323 322 322 320 323 324 323 326 325 326 324 323 320 318 317 319 319 323 314 318 316 319 320 306 306 305
322 321 320 319 318 313 300 301 314 320 320 321 323 323 323 322 308 305 322 321 319 319 308 307 308 304 303 307 314 319 318 318 315 316 320 319 317 314 316 317 319 306 304
319 320 318 320 312 315 298 300 314 320 319 320 320 318 305 315 300 301 321 320 317 315 315 315 314 307 310 311 307 323 321 318 316 314 320 317 317 315 314 318 320 320 315
Wind_Speed
4 3 3 3 3 3 4 4 4 4 5 6 6 7 7 7 6 4 4 11 10 12 15 17 13 11 10 10 10 10 11 11 12 14 13 13 12 15 16 16 16 17 16
6 6 5 6 5 5 4 4 5 5 5 6 7 8 9 7 6 6 5 6 11 11 14 15 11 9 3 7 16 13 12 11 12 12 13 12 12 14 16 17 16 17 14
8 8 6 6 7 6 6 4 4 4 4 5 8 7 7 8 5 7 6 6 6 12 13 12 9 6 9 15 18 14 13 11 11 11 11 12 12 12 17 16 16 16 15
12 10 8 7 6 6 6 5 4 4 5 5 5 6 6 5 6 7 6 6 6 4 6 10 13 13 14 17 16 16 13 13 12 10 11 13 13 10 13 15 15 16 14
12 9 7 6 7 5 6 6 4 5 4 5 6 5 5 4 5 5 8 7 6 4 4 10 14 14 16 17 18 15 12 14 13 12 12 14 14 13 12 13 14 15 14
11 10 7 6 7 5 5 5 5 5 3 5 4 4 3 5 5 5 6 5 6 7 6 6 5 7 15 16 14 13 13 13 14 14 14 14 14 14 15 14 13 14 15
10 10 7 8 8 9 8 8 5 6 4 3 2 3 3 5 7 5 4 5 6 6 4 6 5 5 6 12 14 13 15 13 14 15 14 14 14 15 14 15 13 11 12
11 9 9 8 10 6 7 8 7 3 4 6 4 1 2 2 3 3 3 4 5 3 6 7 8 8 6 5 8 12 13 13 13 14 14 14 14 14 14 14 11 10 10
9 10 10 9 9 8 8 9 9 9 6 4 6 3 2 4 1 1 2 3 5 4 5 5 5 5 5 5 6 7 13 11 11 14 15 15 15 14 14 13 11 6 4
10 10 10 10 9 8 8 9 9 9 5 5 1 3 1 3 3 1 1 2 2 4 4 3 4 5 5 5 8 10 10 10 11 12 15 16 15 15 15 13 12 11 11
8 11 11 10 9 7 8 9 9 9 6 5 4 3 2 1 1 2 3 2 1 2 3 3 3 3 5 4 4 6 8 9 10 9 11 13 14 14 14 14 15 16 16
6 7 7 8 8 8 9 8 9 10 8 4 4 4 4 4 3 3 2 2 2 1 2 3 3 4 3 3 4 6 6 7 7 8 7 10 10 12 13 17 19 21 21
4 6 7 8 7 8 8 8 8 8 8 8 7 5 3 3 3 2 2 1 2 1 2 2 2 2 3 2 4 6 8 8 8 9 8 7 9 11 12 13 20 21 21
6 7 8 7 7 8 8 8 6 5 7 6 8 5 3 4 3 3 4 4 1 1 1 4 1 1 1 3 4 7 6 9 8 9 8 7 8 10 11 14 19 20 20
5 8 8 8 8 9 9 8 5 7 7 6 6 6 3 3 3 3 3 3 4 2 2 1 1 2 1 1 2 3 5 8 9 9 8 8 9 10 13 16 16 13 15
8 9 9 10 10 9 8 8 6 5 7 5 4 7 4 3 4 3 4 3 2 3 2 1 0 1 1 1 3 2 4 7 8 9 9 10 8 7 11 12 17 14 18
10 11 12 11 10 10 8 7 7 8 8 7 6 7 6 5 4 4 3 3 3 3 2 1 0 1 1 5 5 4 5 6 5 8 10 12 11 13 14 12 18 19 17
10 11 11 11 10 9 9 9 9 8 9 8 7 7 6 4 6 5 4 4 4 4 2 3 1 2 3 5 6 6 6 6 5 6 9 13 14 13 14 15 14 15 14
10 10 11 12 11 10 9 8 9 9 8 7 7 7 7 8 6 4 4 5 4 3 2 3 3 1 2 3 6 5 5 6 5 10 7 5 14 14 15 12 13 14 13
12 12 12 11 10 10 9 9 8 7 6 5 5 5 6 8 7 7 6 6 4 5 3 5 3 3 2 3 4 5 4 4 4 5 7 6 7 10 17 14 12 13 13
11 12 12 10 10 9 8 9 7 6 6 5 4 5 5 6 7 6 5 6 6 4 6 7 4 3 3 6 6 2 3 4 4 2 4 2 4 6 6 10 11 13 11
11 11 11 12 10 6 10 11 9 6 6 6 6 4 4 6 6 6 6 8 9 8 8 5 4 6 7 5 6 6 4 6 3 1 4 3 2 5 4 5 8 10 10
12 11 10 10 8 7 9 11 10 5 5 5 6 6 5 4 6 5 3 5 7 8 6 9 10 8 7 8 9 9 6 4 2 2 4 2 2 3 3 3 8 9 9
12 10 10 10 9 5 9 11 10 7 5 5 5 6 6 6 5 6 6 5 5 6 5 3 8 8 6 9 9 6 6 7 6 3 1 3 1 2 2 2 5 8 9
10 9 9 11 9 7 8 11 10 7 6 5 4 5 5 5 7 8 6 5 6 4 5 8 11 11 12 13 10 8 8 9 3 1 1 3 2 2 1 1 3 6 7
11 9 11 8 9 8 7 9 9 6 7 4 3 3 4 2 9 10 6 7 7 5 7 7 6 7 9 11 10 8 9 10 6 2 3 4 3 3 2 2 3 4 3
Wind_Direction
171 159 178 197 208 192 198 198 192 195 209 212 220 224 230 234 237 248 254 259 254 252 253 244 240 246 252 262 256 232 219 215 213 213 210 209 195 199 205 211 197 206 206
176 180 184 204 214 202 197 201 191 201 216 209 220 223 236 234 231 232 247 252 252 251 255 239 233 236 206 306 272 244 219 210 212 211 211 209 200 199 209 213 208 208 201
188 184 194 201 214 197 185 196 197 188 213 219 229 226 230 240 234 236 235 244 249 246 240 232 203 210 193 230 254 242 227 210 212 208 201 197 198 204 203 206 213 206 201
182 185 198 205 198 190 189 190 186 198 213 216 230 232 228 233 239 235 235 236 237 237 256 205 196 199 231 238 249 242 223 216 208 205 194 194 198 200 203 198 200 206 208
188 183 193 196 174 187 190 186 183 197 192 218 232 235 233 241 244 240 239 235 233 210 211 216 223 224 227 238 240 240 230 218 207 200 194 197 200 211 215 210 198 210 218
186 176 189 173 176 181 191 182 181 186 188 210 227 245 234 239 242 232 246 246 236 219 217 225 244 243 241 237 237 240 242 226 210 201 195 196 196 210 216 217 207 214 218
182 185 183 178 180 192 198 185 164 181 196 158 105 277 263 243 239 232 233 236 238 236 221 228 230 243 249 244 236 228 240 239 216 203 193 193 197 203 211 217 209 220 230
190 179 184 183 194 188 179 177 173 162 167 183 156 172 299 294 252 230 230 234 243 258 260 240 225 226 227 236 242 232 233 236 233 207 195 187 198 203 208 208 201 215 233
191 189 189 183 186 188 192 184 184 181 175 182 202 156 149 229 308 0 260 255 251 237 243 243 241 234 227 230 233 241 233 220 232 218 192 190 198 201 205 193 193 178 182
198 191 187 187 184 191 195 191 182 189 149 166 162 227 246 158 179 226 267 267 247 238 242 237 247 254 240 234 233 230 234 215 222 226 190 196 201 200 202 194 163 144 114
191 190 185 174 195 189 194 178 173 188 189 152 157 153 159 163 79 141 233 268 302 245 254 252 241 255 250 238 227 223 218 211 215 218 186 192 205 196 196 177 159 149 140
188 185 172 185 186 185 188 185 179 189 180 180 156 158 156 168 182 157 169 213 241 311 277 259 246 237 231 227 224 223 225 216 211 206 184 197 191 185 192 191 168 156 153
197 178 170 176 190 195 189 168 173 184 178 186 166 185 160 171 139 138 137 149 232 294 305 280 253 233 237 227 239 236 229 209 211 191 193 183 177 176 195 187 166 159 153
176 138 182 185 187 178 177 163 170 169 171 171 160 166 164 173 166 155 154 148 151 260 305 265 307 258 276 238 240 247 234 203 193 186 165 176 164 180 188 160 160 158 148
146 161 171 177 177 179 169 154 166 169 171 161 163 160 158 170 175 164 168 159 154 184 250 285 291 10 292 229 211 242 215 198 171 146 153 160 168 173 166 160 148 136 137
149 155 175 173 171 162 155 170 160 151 150 150 151 157 168 157 173 174 180 157 160 152 199 214 61 351 138 101 58 123 157 110 125 147 158 126 133 147 157 148 138 132 138
166 171 176 160 162 161 160 163 155 154 153 146 150 172 178 157 171 179 172 163 169 152 168 108 27 94 96 108 77 64 101 104 115 142 138 129 129 123 135 141 140 142 143
169 170 162 154 159 155 166 157 158 154 155 162 172 172 175 166 182 188 176 179 187 170 146 138 132 101 59 97 95 76 77 79 96 110 143 145 129 124 129 130 138 144 141
164 158 152 156 159 164 162 163 151 159 160 171 176 172 174 174 186 177 184 176 179 161 175 142 129 108 98 105 96 76 75 78 71 93 89 139 136 139 132 139 152 143 146
159 157 158 157 159 161 158 155 148 149 159 175 169 177 176 184 187 184 187 181 171 162 159 134 115 115 98 104 97 114 88 67 82 74 70 76 100 126 134 150 145 154 153
158 154 147 148 151 158 152 148 146 155 164 165 174 185 189 195 182 184 177 173 163 150 153 156 141 130 144 140 143 125 102 109 63 82 99 62 109 114 129 130 150 153 150
141 143 149 145 148 135 127 131 144 156 162 163 177 178 181 160 159 172 188 163 170 155 162 161 158 171 163 141 137 139 138 144 119 21 106 61 91 110 127 145 128 141 147
140 137 127 125 115 118 131 142 137 145 149 160 165 165 161 157 151 145 133 177 176 176 176 165 167 175 161 163 148 152 153 125 99 131 108 69 35 93 111 112 149 155 163
131 122 116 113 119 113 123 132 122 124 128 140 162 168 160 156 165 156 163 167 178 185 168 154 174 166 149 149 155 146 128 120 98 70 90 99 77 73 103 125 157 171 175
115 120 118 121 124 125 135 127 113 114 117 138 151 159 156 159 165 166 162 154 139 125 55 113 125 124 135 132 137 127 143 144 139 124 81 111 126 96 75 170 184 193 201
118 115 113 110 122 131 135 123 112 123 137 129 118 122 64 166 167 180 161 150 141 143 133 118 104 95 132 145 156 157 156 161 142 108 191 121 135 143 153 198 202 204 214